Wind_Speed
30 31 31 30 29 28 27 26 26 26 25 25 25 25 26 26 25 24 24 24 23 23 22 22 22 22 21 21 21 21 21 20 21 21 21 21 21 21 21 21 21 22 22
30 31 31 32 31 30 29 28 27 27 27 27 27 26 26 28 28 27 27 27 26 26 25 25 25 25 24 24 24 24 23 22 23 23 23 23 23 22 22 22 23 23 23
31 31 31 32 32 31 31 30 30 29 29 29 29 29 29 28 28 29 29 29 29 29 28 28 28 27 27 26 26 26 26 25 25 25 25 25 24 23 24 24 24 24 24
34 32 31 32 32 32 32 31 31 30 30 31 31 31 31 31 31 30 31 31 31 31 30 30 30 30 30 29 29 29 28 28 28 27 26 26 26 26 25 25 25 25 25
35 34 32 33 33 32 33 32 32 31 31 31 32 32 32 33 33 32 33 33 33 33 33 32 32 32 32 32 32 31 31 31 30 30 29 28 28 28 27 27 27 27 27
36 35 33 33 34 34 34 35 34 34 33 32 32 33 33 33 33 34 34 34 35 34 34 35 34 34 34 34 34 33 33 33 32 32 32 31 31 30 30 29 29 29 29
37 37 35 34 35 35 35 35 36 36 36 35 34 34 34 34 34 35 36 36 36 36 35 35 36 36 35 35 36 35 36 35 35 34 34 33 33 32 32 32 31 31 31
38 38 37 37 37 36 37 37 37 37 38 37 36 36 36 36 36 36 37 37 37 37 37 36 37 37 36 36 36 36 36 36 36 36 36 35 35 34 34 34 33 33 33
38 39 38 37 38 38 38 38 38 38 38 37 37 38 38 37 37 37 37 37 37 38 38 38 38 39 39 38 38 38 37 36 36 36 36 37 37 36 36 36 35 35 35
38 39 39 38 38 38 39 39 40 40 40 40 40 39 40 39 39 39 39 39 40 40 40 40 40 40 40 40 39 39 38 38 37 38 38 38 38 38 38 38 37 37 37
38 39 40 40 39 39 40 41 41 42 42 42 42 42 42 42 42 42 42 42 42 42 42 42 41 41 41 42 41 41 40 40 39 39 39 40 40 40 40 40 39 39 39
39 40 41 42 42 42 41 41 42 44 44 44 44 44 44 44 43 43 43 43 43 42 42 43 42 42 42 43 43 42 42 42 42 42 41 41 42 42 42 41 41 41 41
39 40 42 42 43 44 44 43 43 44 45 45 45 45 45 45 45 45 45 44 44 43 43 43 44 44 43 44 44 45 44 44 44 44 43 43 44 44 44 43 43 43 43
40 40 42 43 43 45 45 45 44 45 46 46 46 46 46 46 46 46 46 46 46 45 44 44 45 45 45 45 45 46 46 46 47 46 46 45 46 45 46 46 46 46 45
41 41 42 43 43 45 46 45 45 45 46 46 47 47 47 47 48 48 48 48 47 47 46 45 46 46 47 47 47 47 48 48 48 48 48 47 48 48 48 48 48 48 48
42 42 43 43 43 45 46 46 46 46 46 46 46 47 48 49 49 48 49 48 48 48 47 46 46 47 48 49 49 49 49 49 48 48 48 48 49 50 49 49 50 50 50
42 43 43 43 43 45 46 47 48 48 47 47 47 47 47 47 48 48 48 49 48 48 48 47 47 48 49 49 50 49 49 49 49 49 49 49 50 51 51 51 52 52 52
43 43 43 43 44 45 46 47 48 49 49 49 49 48 47 46 46 47 47 47 48 48 48 48 47 48 49 49 49 49 49 49 50 50 50 50 51 51 52 53 53 53 53
45 45 45 45 45 46 46 47 48 49 49 48 49 49 48 47 47 47 47 47 48 49 49 49 48 48 48 49 50 50 51 50 50 51 52 51 51 52 52 53 54 54 55
46 46 46 46 46 46 47 47 47 47 47 47 48 48 48 48 48 48 48 48 49 50 50 50 49 49 49 50 50 51 51 51 51 52 53 53 52 53 53 54 54 54 55
46 46 46 46 47 47 47 47 47 47 47 47 47 47 47 47 47 48 48 49 50 50 51 51 51 50 50 50 51 51 52 52 52 53 53 54 53 53 54 54 54 55 55
44 44 46 47 47 46 46 46 47 47 46 46 46 46 47 47 47 48 49 50 51 50 50 51 52 52 51 52 51 52 52 52 52 52 53 53 53 53 53 53 54 55 55
45 45 44 45 45 45 45 45 46 46 45 44 45 46 47 47 48 48 48 49 50 50 50 51 51 51 52 52 52 51 52 53 52 52 52 53 54 54 53 53 54 55 55
44 45 45 45 45 45 45 45 45 45 45 44 44 45 46 46 47 48 48 48 49 50 50 50 51 51 51 52 52 52 52 53 53 52 52 52 52 53 53 53 54 55 56
45 45 45 45 45 45 45 44 44 44 44 45 45 45 46 47 47 48 48 49 49 49 49 50 51 51 51 52 53 53 53 53 52 52 52 53 53 53 53 52 53 54 56
45 45 44 44 45 44 44 44 44 44 44 45 45 45 46 46 46 48 49 49 49 49 49 50 51 51 51 52 53 53 53 53 52 52 53 53 53 53 52 52 53 54 55
Wind_Direction
240 240 239 242 243 244 245 246 249 248 249 251 253 256 256 256 257 257 258 259 261 263 266 269 271 274 276 277 276 278 281 283 284 285 287 288 290 291 293 294 296 298 299
240 241 241 243 244 246 248 249 250 251 251 252 253 256 259 258 258 259 259 260 261 263 265 269 271 272 273 274 275 276 278 280 281 282 285 286 288 289 291 292 294 296 297
238 240 241 243 245 247 249 252 253 253 254 254 256 258 259 260 261 260 261 261 262 264 266 267 270 271 272 273 274 275 276 277 279 280 281 283 285 288 290 291 293 294 295
238 240 241 243 245 247 249 251 253 254 255 255 256 257 259 260 262 262 262 263 264 265 266 267 268 270 272 273 273 274 274 275 277 279 280 281 283 285 287 288 290 292 293
239 240 242 244 245 247 248 249 251 253 254 255 256 257 260 261 262 262 263 264 266 267 267 267 268 269 271 272 273 273 274 275 276 277 279 280 281 283 285 286 287 289 291
241 241 242 244 245 247 249 250 252 254 254 255 258 259 260 262 262 264 264 265 266 268 268 268 268 269 270 271 272 272 273 274 276 277 278 279 280 281 283 284 285 287 288
243 243 243 245 246 247 249 251 253 254 255 257 258 259 260 261 263 264 265 266 266 266 266 267 268 269 269 269 270 272 273 273 274 275 276 278 278 279 281 282 284 285 286
243 244 245 247 247 248 250 252 254 256 257 256 257 259 261 262 263 264 265 265 265 266 266 267 268 268 269 269 270 271 273 273 272 272 274 276 278 279 280 282 283 285 286
244 245 247 249 248 250 251 253 254 256 255 256 257 259 261 261 261 263 264 265 266 266 266 266 268 268 269 269 270 271 273 272 272 272 273 275 277 279 280 281 283 284 285
248 248 247 250 250 252 253 254 255 256 257 258 259 260 261 262 262 262 264 266 267 267 267 267 268 268 268 268 270 270 271 271 271 272 273 275 276 278 279 281 281 282 283
250 249 249 250 251 252 255 255 256 257 259 259 260 261 262 263 265 266 266 267 268 269 268 268 267 268 267 268 269 269 269 269 271 272 274 274 275 277 278 279 280 281 282
251 252 251 252 253 253 255 256 257 258 260 261 262 263 263 264 265 266 267 267 268 268 269 268 267 267 267 268 268 267 267 268 269 270 272 273 274 275 277 278 279 281 281
251 252 252 253 254 255 256 257 259 260 261 261 262 263 263 264 265 266 267 268 267 268 268 267 267 266 266 266 266 266 265 267 268 270 271 273 273 274 275 276 278 280 281
253 254 255 255 255 256 257 259 260 261 261 262 263 263 263 265 265 266 266 267 268 268 267 267 267 266 266 266 266 266 265 266 267 269 271 272 272 273 274 276 278 279 280
254 255 257 257 258 258 258 259 260 262 263 263 264 264 265 265 266 266 266 268 268 268 267 267 267 266 266 266 266 268 267 267 268 269 271 272 273 274 275 276 277 278 279
255 256 257 258 260 260 260 261 261 262 263 265 267 266 267 267 266 267 267 267 268 268 267 266 266 266 268 268 268 269 269 268 268 270 271 273 274 273 275 275 276 278 279
256 257 258 259 261 263 263 263 263 263 264 266 267 268 269 268 267 267 267 266 266 267 267 266 267 268 268 268 269 269 270 269 269 270 271 273 274 274 275 276 277 278 279
257 258 259 260 263 264 264 264 265 265 266 267 268 268 267 267 267 267 267 267 267 267 267 268 268 269 269 269 269 270 270 270 269 270 271 273 274 274 275 276 277 278 279
258 259 260 263 265 265 264 265 266 266 267 268 268 268 267 267 267 267 267 268 268 267 268 269 269 269 270 270 270 270 270 270 270 271 271 272 273 274 275 276 277 278 278
260 260 261 264 266 266 265 265 267 267 268 267 268 268 266 265 266 267 267 267 268 268 268 268 269 269 270 272 271 270 270 270 270 271 271 272 274 275 275 276 277 278 279
261 262 263 265 265 266 266 267 267 268 268 267 267 267 266 267 267 267 267 266 266 266 267 268 269 270 271 272 273 271 270 269 269 270 272 273 274 276 277 278 278 279 279
263 265 265 265 266 266 266 267 266 267 266 267 267 267 268 268 268 269 269 267 266 267 269 269 270 271 271 272 272 271 270 269 268 270 272 273 275 277 277 278 279 280 280
264 265 266 265 265 265 266 267 267 266 266 268 268 269 268 269 269 269 269 268 268 268 270 271 271 271 271 271 271 271 270 269 269 271 272 274 275 277 278 279 279 280 281
266 265 266 266 265 265 266 266 266 265 267 268 269 269 268 269 269 269 269 269 269 269 270 271 271 271 271 271 271 271 271 270 269 271 273 275 276 277 279 279 280 280 281
265 265 265 265 265 266 266 266 266 266 267 269 270 270 270 269 270 269 269 270 271 271 270 271 271 271 271 272 271 271 271 270 270 270 273 275 276 276 277 279 280 280 281
266 266 266 265 265 265 265 265 265 266 268 269 270 269 269 270 271 270 270 271 272 271 271 271 272 272 272 273 272 272 271 272 272 272 273 275 276 276 277 279 281 281 281
Height
5804 5808 5811 5814 5817 5820 5822 5824 5826 5828 5830 5832 5833 5835 5836 5837 5839 5840 5841 5842 5843 5844 5844 5845 5845 5846 5846 5846 5846 5846 5845 5845 5845 5845 5844 5843 5843 5842 5841 5840 5839 5838 5837
5798 5802 5805 5808 5811 5814 5816 5818 5821 5823 5824 5826 5828 5829 5831 5832 5833 5835 5836 5837 5838 5839 5839 5840 5840 5840 5841 5841 5841 5841 5841 5841 5840 5840 5839 5839 5838 5837 5837 5836 5835 5834 5832
5792 5795 5799 5802 5805 5808 5810 5813 5815 5817 5819 5820 5822 5823 5825 5826 5827 5828 5830 5831 5832 5833 5833 5834 5834 5834 5835 5835 5835 5835 5835 5835 5835 5834 5834 5834 5833 5832 5831 5831 5830 5829 5827
5785 5789 5792 5796 5799 5801 5804 5806 5808 5810 5812 5814 5815 5817 5818 5820 5821 5822 5823 5824 5825 5826 5827 5827 5828 5828 5828 5829 5829 5829 5829 5829 5829 5828 5828 5828 5827 5826 5826 5825 5824 5823 5822
5778 5782 5785 5789 5792 5794 5797 5799 5801 5803 5805 5807 5808 5810 5811 5813 5814 5815 5816 5817 5818 5818 5819 5820 5821 5821 5821 5822 5822 5822 5822 5822 5822 5822 5822 5821 5821 5820 5820 5819 5818 5817 5816
5771 5775 5778 5781 5784 5787 5790 5792 5794 5796 5798 5799 5801 5803 5804 5805 5807 5808 5809 5809 5810 5811 5811 5812 5813 5813 5814 5814 5814 5815 5815 5815 5815 5815 5815 5815 5814 5814 5813 5812 5811 5811 5809
5764 5768 5771 5774 5777 5779 5782 5784 5786 5788 5790 5792 5793 5795 5796 5797 5799 5800 5800 5801 5802 5802 5803 5804 5804 5805 5805 5806 5806 5807 5807 5807 5807 5807 5807 5807 5807 5806 5806 5805 5804 5803 5802
5756 5760 5763 5766 5769 5771 5773 5776 5778 5780 5782 5783 5785 5786 5788 5790 5790 5791 5792 5792 5793 5793 5794 5795 5795 5796 5796 5797 5797 5798 5798 5798 5798 5799 5799 5799 5799 5798 5798 5797 5796 5796 5795
5748 5752 5754 5757 5760 5762 5765 5767 5769 5772 5773 5774 5776 5777 5778 5780 5781 5782 5783 5783 5783 5784 5785 5785 5786 5786 5787 5788 5788 5789 5789 5789 5789 5790 5790 5790 5790 5790 5789 5789 5788 5787 5786
5740 5743 5746 5749 5751 5753 5756 5758 5760 5762 5763 5765 5766 5767 5769 5770 5771 5772 5773 5773 5773 5774 5774 5775 5776 5776 5777 5778 5778 5779 5779 5780 5780 5780 5780 5780 5780 5780 5780 5779 5779 5778 5777
5731 5734 5737 5740 5742 5744 5747 5748 5750 5752 5753 5755 5756 5757 5758 5759 5759 5760 5762 5763 5763 5763 5764 5764 5765 5765 5766 5767 5768 5769 5769 5770 5770 5770 5770 5770 5770 5770 5770 5769 5769 5768 5767
5723 5725 5728 5730 5733 5735 5737 5739 5740 5741 5743 5744 5745 5746 5747 5748 5749 5749 5750 5751 5752 5753 5753 5753 5753 5754 5754 5755 5756 5757 5758 5759 5759 5759 5759 5760 5760 5760 5759 5759 5758 5757 5756
5714 5716 5719 5721 5723 5724 5726 5728 5730 5731 5731 5732 5734 5735 5735 5736 5737 5738 5738 5739 5740 5741 5742 5742 5742 5742 5743 5743 5744 5745 5746 5747 5748 5748 5748 5748 5748 5748 5748 5748 5747 5746 5744
5704 5706 5709 5710 5712 5714 5716 5717 5718 5719 5720 5721 5722 5722 5723 5724 5724 5725 5726 5726 5727 5729 5730 5731 5730 5730 5731 5732 5732 5733 5734 5735 5735 5736 5736 5737 5737 5736 5736 5736 5735 5734 5732
5694 5696 5698 5700 5701 5703 5704 5706 5707 5707 5708 5709 5710 5710 5711 5711 5712 5712 5712 5713 5714 5716 5718 5718 5719 5718 5718 5719 5720 5720 5721 5721 5722 5723 5724 5724 5724 5724 5723 5723 5722 5721 5720
5683 5685 5687 5689 5690 5691 5692 5694 5695 5696 5696 5697 5697 5698 5698 5698 5698 5698 5699 5699 5700 5701 5703 5705 5705 5705 5705 5706 5707 5707 5708 5709 5709 5710 5710 5710 5710 5710 5710 5709 5709 5708 5707
5672 5674 5676 5677 5678 5679 5680 5681 5683 5683 5684 5684 5684 5685 5685 5685 5685 5685 5686 5686 5687 5688 5689 5692 5692 5692 5692 5693 5693 5694 5695 5695 5696 5696 5697 5697 5696 5696 5696 5695 5695 5694 5693
5661 5663 5664 5665 5666 5667 5668 5669 5670 5670 5671 5671 5671 5671 5672 5672 5672 5673 5673 5674 5675 5675 5676 5678 5679 5679 5679 5679 5680 5680 5681 5682 5682 5683 5683 5683 5682 5681 5681 5681 5680 5680 5678
5650 5651 5652 5653 5654 5654 5655 5656 5656 5657 5658 5658 5658 5658 5659 5659 5660 5660 5661 5661 5662 5663 5663 5664 5666 5666 5666 5666 5666 5667 5668 5668 5669 5669 5669 5669 5668 5667 5667 5666 5665 5664 5663
5638 5639 5640 5640 5641 5641 5642 5642 5643 5644 5644 5645 5645 5645 5645 5646 5647 5647 5648 5648 5649 5649 5650 5651 5652 5653 5653 5652 5652 5653 5654 5655 5655 5655 5654 5654 5654 5653 5652 5651 5650 5649 5648
5626 5626 5627 5627 5628 5628 5628 5629 5630 5631 5631 5632 5632 5632 5633 5633 5633 5633 5634 5635 5635 5636 5636 5637 5638 5639 5639 5639 5639 5639 5639 5640 5641 5640 5640 5640 5639 5638 5637 5636 5635 5633 5632
5613 5614 5614 5615 5615 5615 5616 5616 5617 5618 5619 5619 5619 5619 5620 5620 5620 5620 5620 5620 5621 5622 5622 5623 5624 5624 5624 5624 5624 5624 5624 5625 5627 5627 5626 5626 5624 5623 5622 5621 5619 5618 5616
5601 5602 5602 5602 5603 5603 5603 5604 5604 5605 5606 5606 5606 5606 5607 5607 5607 5607 5606 5606 5607 5607 5608 5609 5609 5609 5609 5610 5610 5610 5609 5610 5611 5612 5611 5612 5610 5609 5608 5606 5604 5602 5600
5589 5590 5590 5590 5591 5591 5591 5592 5592 5592 5593 5593 5593 5593 5593 5593 5593 5593 5593 5593 5593 5594 5594 5594 5595 5594 5593 5593 5594 5594 5594 5595 5597 5596 5596 5597 5596 5595 5594 5592 5589 5586 5584
5577 5577 5578 5578 5579 5579 5579 5579 5579 5580 5581 5581 5581 5580 5580 5580 5579 5579 5579 5580 5580 5580 5579 5579 5579 5578 5578 5578 5578 5578 5579 5579 5581 5582 5580 5581 5581 5580 5580 5578 5575 5571 5568
5564 5565 5565 5566 5566 5567 5567 5567 5567 5568 5568 5568 5568 5568 5567 5567 5566 5565 5565 5565 5566 5566 5565 5565 5565 5564 5563 5563 5562 5562 5563 5563 5564 5566 5566 5565 5564 5563 5564 5564 5561 5557 5554